Regional Weather Roundup
Issued by NWS

Home | Current Version | Previous Version | Graphics & Text | Print | Product List | Glossary On
Versions: 1 2 3 4 5 6 7 8 9 10 11 12 13 14 15 16 17 18 19 20 21 22 23 24 25 26 27 28 29 30 31 32 33 34 35 36 37 38 39 40 41 42 43 44 45 46 47 48 49 50
000
ASUS44 KMEG 152010
RWRTN
TENNESSEE HOURLY STATE WEATHER ROUNDUP
NATIONAL WEATHER SERVICE MEMPHIS TN
300 PM CDT MON SEP 15 2014

TNZ002-004-019-021-049-052-054-088>092-152100-
WEST TENNESSEE

CITY           SKY/WX    TMP DP  RH WIND       PRES   REMARKS
MEMPHIS INTL   CLOUDY    84  61  45 CALM      30.12F
NWS MEMPHIS      N/A     82 N/A N/A MISG        N/A
JACKSON        CLOUDY    79  58  48 CALM      30.12F
DYERSBURG      CLOUDY    72  55  56 S5        30.13F
UNION CITY     SUNNY     72  59  64 S6        30.11F
PARIS          SUNNY     72  57  60 S6        30.13F
HUNTINGDON     CLOUDY    69  60  73 CALM      30.14F
LEXINGTON      SUNNY     75  63  64 N5        30.13F
SAVANNAH       SUNNY     84  64  51 CALM      30.11F
$$

TNZ008-025-027-028-033-062-065-066-152100-
NORTH MIDDLE TENNESSEE

CITY           SKY/WX    TMP DP  RH WIND       PRES   REMARKS
NASHVILLE      CLOUDY    75  60  59 NW6       30.14F
DICKSON        CLOUDY    70  61  73 NW6       30.15F
PORTLAND       CLOUDY    70  64  83 SW5       30.13F
CLARKSVILLE    CLOUDY    73  60  63 S7        30.12F
LEBANON        CLOUDY    72  63  73 N5        30.13F
SMYRNA         CLOUDY    76  64  66 N7        30.13F
MURFREESBORO   CLOUDY    76  64  66 NE7       30.12F
COOKEVILLE     SUNNY     75  66  73 N3        30.15F
LIVINGSTON     CLOUDY    71  60  68 W3        30.17F
GALLATIN       CLOUDY    72  66  81 CALM      30.15F
CROSSVILLE     CLOUDY    74  62  66 NW8       30.18F
$$

TNZ061-075-076-078-094-096-097-152100-
SOUTH MIDDLE TENNESSEE

CITY           SKY/WX    TMP DP  RH WIND       PRES   REMARKS
LEWISBURG      CLOUDY    84  67  56 N7        30.11F
FAYETTEVILLE   SUNNY     79  68  69 S3        30.13F
TULLAHOMA      PTSUNNY   77  66  69 N7        30.14F
WINCHESTER     MOSUNNY   81  70  69 SW6       30.13F
MCMINNVILLE    SUNNY     79  70  73 N7        30.14F
COLUMBIA       SUNNY     82  66  57 VRB5      30.11F
SHELBYVILLE    PTSUNNY   84  68  58 NW6       30.12F
$$

TNZ017-018-042-046-047-152100-
NORTHEAST TENNESSEE

CITY           SKY/WX    TMP DP  RH WIND       PRES   REMARKS
TRI CITIES     CLOUDY    75  61  61 W8        30.16S
ELIZABETHTON   PTCLDY    75  63  64 NW8       30.16S
$$

TNZ012-013-036-069-073-074-152100-
CENTRAL EAST TENNESSEE

CITY           SKY/WX    TMP DP  RH WIND       PRES   REMARKS
KNOXVILLE      PTSUNNY   77  66  68 W8        30.14S
OAK RIDGE      CLOUDY    75  66  73 VRB5      30.16F
GATLINBURG     MOCLDY    79  66  65 VRB5      30.13S
MORRISTOWN     CLEAR     75  66  73 NW9       30.16F
$$

TNZ083-085-099-152100-
SOUTHEAST TENNESSEE

CITY           SKY/WX    TMP DP  RH WIND       PRES   REMARKS
CHATTANOOGA    PTSUNNY   77  67  71 CALM      30.13F
$$

SKY/WX REPORTED AS FAIR MEANS FEW OR NO CLOUDS BELOW
12 THOUSAND FEET.



USA.gov is the U.S. government's official web portal to all federal, state and local government web resources and services.